This is the latest recevied weather packets stored in our database for station/object AB8Y-13. If no packets are shown the sender has not sent any weather packets the latest 10 day(s).
| Time | Temp. | Humidity | Pressure | Rain* | Wind** | Luminosity | Snow |
|---|---|---|---|---|---|---|---|
| 1777525044 | 4.44° C | 90% | 1014.4 hPa | 1.78 mm | - | 0 W/m² | - |
| 1777524742 | 4.44° C | 89% | 1014.4 hPa | 3.05 mm | - | 0 W/m² | - |
| 1777524440 | 4.44° C | 86% | 1014.3 hPa | 1.27 mm | - | 0 W/m² | - |
| 1777524136 | 4.44° C | 86% | 1014.5 hPa | 0 mm | - | 0 W/m² | - |
| 1777523833 | 4.44° C | 86% | 1014.5 hPa | 0 mm | - | 0 W/m² | - |
| 1777523529 | 4.44° C | 86% | 1014.3 hPa | 0 mm | - | 0 W/m² | - |
| 1777523225 | 5° C | 85% | 1014.5 hPa | 0 mm | - | 0 W/m² | - |
| 1777522921 | 5° C | 85% | 1014.4 hPa | 0 mm | - | 0 W/m² | - |
| 1777522619 | 5° C | 82% | 1014.3 hPa | 0 mm | - | 0 W/m² | - |
| 1777522315 | 5° C | 82% | 1014.4 hPa | 0 mm | - | 0 W/m² | - |
| 1777522012 | 5° C | 83% | 1014.3 hPa | 0 mm | - | 0 W/m² | - |
| 1777521708 | 5° C | 83% | 1014.2 hPa | 0 mm | - | 0 W/m² | - |
| 1777521405 | 5° C | 83% | 1014.5 hPa | 0 mm | - | 0 W/m² | - |
| 1777521102 | 5° C | 83% | 1014.3 hPa | 0 mm | - | 0 W/m² | - |
| 1777520800 | 5° C | 84% | 1014.3 hPa | 0 mm | - | 0 W/m² | - |
| 1777520496 | 5° C | 83% | 1014.4 hPa | 1.78 mm | - | 0 W/m² | - |
| 1777520193 | 5° C | 81% | 1014.3 hPa | 1.78 mm | - | 0 W/m² | - |
| 1777519891 | 5° C | 80% | 1014.2 hPa | 0 mm | - | 0 W/m² | - |
| 1777519588 | 5.56° C | 79% | 1014.3 hPa | 0 mm | - | 0 W/m² | - |
| 1777519284 | 5.56° C | 79% | 1014.2 hPa | 0 mm | - | 0 W/m² | - |
| 1777518980 | 5.56° C | 78% | 1014.2 hPa | 0 mm | - | 0 W/m² | - |
| 1777518677 | 5.56° C | 79% | 1014.5 hPa | 0 mm | - | 0 W/m² | - |
| 1777518374 | 5.56° C | 76% | 1014.3 hPa | 0 mm | - | 0 W/m² | - |
| 1777518069 | 5.56° C | 75% | 1014.3 hPa | 0 mm | - | 0 W/m² | - |
| 1777517765 | 5.56° C | 77% | 1014.3 hPa | 0 mm | - | 0 W/m² | - |
* Rain latest hour (hover to see other rain measurements)
** Current wind speed in m/s (hover to see current wind gust speed)